Weather Roundup
Issued by NWS

Home | Current Version | Previous Version | Graphics & Text | Print | Product List | Glossary Off
Versions: 1 2 3 4 5 6 7 8 9 10 11 12 13 14 15 16 17 18 19 20 21 22 23 24 25 26 27 28 29 30 31 32 33 34 35 36 37 38 39 40 41 42 43 44 45 46 47 48 49 50

000
NZUS93 KARX 310410
HRRWXR

CURRENT HOURLY OBSERVATIONS ACROSS
MUCH OF THE UPPER MISSISSIPPI VALLEY
NATIONAL WEATHER SERVICE LA CROSSE WI
1100 PM CDT TUE AUG 30 2016


...SOUTHEAST MINNESOTA...


CITY           SKY/WX    TMP DP  RH WIND       PRES   REMARKS
ROCHESTER      CLOUDY    62  58  86 NW7       30.18S
ROCHESTER/MAYO FAIR      65  58  79 NW3       30.17S
WINONA         CLOUDY    63  61  94 NW3       30.14S
AUSTIN         PTCLDY    61  57  88 N3        30.17S
ALBERT LEA     CLOUDY    64  57  77 CALM      30.18S
DODGE CENTER   CLOUDY    61  57  88 N5        30.18S
PRESTON        CLOUDY    63  57  82 N3        30.17S
OWATONNA       CLEAR     59  55  88 CALM      30.18R
FARIBAULT      CLEAR     59  57  94 CALM      30.18S
$$

...ELSEWHERE IN MINNESOTA...


CITY           SKY/WX    TMP DP  RH WIND       PRES   REMARKS
MINNEAPOLIS    CLEAR     66  55  67 NW3       30.16F
INTNL FALLS    CLEAR     47  44  90 CALM      30.19S
DULUTH         CLEAR     59  52  77 N7        30.18R
RED WING       CLEAR     63  57  82 CALM      30.14S
REDWOOD FALLS  CLOUDY    67  58  72 N3        30.19S
MANKATO        NOT AVBL
WORTHINGTON    CLOUDY    62  59  90 NW3       30.21F
FAIRMONT       CLOUDY    64  59  83 N5        30.19F
$$

...SOUTHWEST WISCONSIN...


CITY           SKY/WX    TMP DP  RH WIND       PRES   REMARKS
LA CROSSE      CLOUDY    67  63  87 N6        30.13R
PRAIRIE DU CHI CLEAR     69  65  88 CALM      30.11S
BOSCOBEL       CLOUDY    69  67  93 CALM      30.11R
LONE ROCK      PTCLDY    71  64  78 N9        30.10S
PLATTEVILLE    CLEAR     68  68 100 CALM      30.11S
FORT MC COY    PTCLDY    60  60 100 CALM      30.14R
CAMP DOUGLAS   PTCLDY    61  59  94 W6        30.12R
MAUSTON-NEW LI CLOUDY    66  63  91 NW5       30.12R
VIROQUA        FAIR      64  61  88 N5        30.14S
WIS DELLS      PTCLDY    68  62  79 NW5       30.11R
$$

...ELSEWHERE IN WISCONSIN...


CITY           SKY/WX    TMP DP  RH WIND       PRES   REMARKS
MILWAUKEE      MOCLDY    73  68  84 W5        30.05S
MADISON        MOCLDY    69  66  90 NW5       30.08R
GREEN BAY      PTCLDY    70  66  87 N13       30.08R
EAU CLAIRE     CLEAR     63  56  78 N5        30.14R
BLACK RVR FLS  FAIR      62  57  85 CALM      30.13S
MEDFORD        CLEAR     57  55  92 NE3       30.15S
WAUSAU         CLEAR     64  49  57 VRB5      30.13R
WIS RAPIDS     PTCLDY    66  61  84 N8        30.13R
MARSHFIELD     CLEAR     65  55  70 N8        30.14R
RICE LAKE      CLEAR     58  54  84 NW3       30.17F
$$

...NORTHEAST IOWA...


CITY           SKY/WX    TMP DP  RH WIND       PRES   REMARKS
WATERLOO       CLEAR     65  62  90 N6        30.13R
DUBUQUE        CLEAR     69  67  93 N7        30.11S
DECORAH        CLEAR     66  63  88 N7        30.14S
MASON CITY     CLEAR     61  58  90 N6        30.19R
CHARLES CITY   CLEAR     63  63 100 N6        30.16S
OELWEIN        CLEAR     64  63  94 N6        30.15R
$$

...ELSEWHERE IN IOWA...


CITY           SKY/WX    TMP DP  RH WIND       PRES   REMARKS
DES MOINES     CLOUDY    76  70  82 N7        30.14R
IOWA CITY      CLOUDY    74  71  91 NW6       30.11S
FORT DODGE     PTCLDY    66  63  88 N3        30.18S
MARSHALLTOWN   CLEAR     65  65 100 NW7       30.14S
CEDAR RAPIDS   CLEAR     70  70 100 NW6       30.11R
$$

...NORTHERN ILLINOIS...


CITY           SKY/WX    TMP DP  RH WIND       PRES   REMARKS
CHICAGO-OHARE  CLOUDY    73  68  84 W3        30.06R
CHICAGO-MIDWAY CLOUDY    76  67  73 NW5       30.06R
MOLINE         MOCLDY    73  69  87 CALM      30.08S
ROCKFORD       CLOUDY    71  68  90 CALM      30.09S
PEORIA         PTCLDY    74  74 100 W3        30.08S
$$

NOTE: "FAIR" INDICATES FEW OR NO CLOUDS BELOW 12,000 FEET WITH NO
SIGNIFICANT WEATHER AND/OR OBSTRUCTIONS TO VISIBILITY. WIND
SPEEDS ARE IN MILES-PER-HOUR.




USA.gov is the U.S. government's official web portal to all federal, state and local government web resources and services.